CW6761 Weather Reports


time (UTC)temp
C
wind
direction
speed
KPH
gust
KPH
rain 1hr
cm
rain 24hr
cm
rain mn
cm
humidity
%
barometer
mb
20260507093621 16 145 1.6 0.0 0.00 0.00 0.03 47 1012.7
20260507093124 15 55 1.6 0.0 0.00 0.00 0.03 50 1012.9
20260507092627 15 93 1.6 0.0 0.00 0.00 0.03 52 1012.9
20260507092110 15 316 3.2 0.0 0.00 0.00 0.03 54 1012.9
20260507091614 15 28 4.8 0.0 0.00 0.00 0.03 53 1012.9
20260507091118 15 33 4.8 0.0 0.00 0.00 0.03 52 1012.9
20260507090621 15 29 4.8 0.0 0.00 0.00 0.03 55 1012.8
20260507090125 15 107 3.2 0.0 0.00 0.00 0.03 58 1012.8
20260507085612 14 49 3.2 0.0 0.00 0.00 0.03 63 1012.8
20260507085112 13 11 3.2 0.0 0.00 0.00 0.03 68 1012.8
20260507084615 13 294 4.8 0.0 0.00 0.00 0.03 74 1012.8
20260507084123 12 319 3.2 0.0 0.00 0.00 0.03 73 1012.8
20260507083627 12 24 3.2 0.0 0.00 0.00 0.03 73 1013.0
20260507083129 12 306 4.8 0.0 0.00 0.00 0.03 74 1013.1
20260507082627 12 24 4.8 0.0 0.00 0.00 0.03 74 1013.3
20260507081614 12 34 4.8 0.0 0.00 0.00 0.03 75 1013.5
20260507081118 12 319 3.2 0.0 0.00 0.00 0.03 76 1013.5
20260507080620 12 43 3.2 0.0 0.00 0.00 0.03 77 1012.6
20260507080123 12 57 1.6 0.0 0.00 0.00 0.03 77 1012.6
20260507075612 12 53 1.6 0.0 0.00 0.00 0.03 76 1012.6
20260507075113 12 30 1.6 0.0 0.00 0.00 0.03 76 1012.6
20260507074616 11 24 1.6 0.0 0.00 0.00 0.03 75 1012.5
20260507074119 11 57 1.6 0.0 0.00 0.00 0.03 75 1012.6
20260507073622 11 96 1.6 0.0 0.00 0.00 0.03 75 1012.6
20260507073124 12 126 3.2 0.0 0.00 0.00 0.03 74 1012.6
20260507072632 12 84 3.2 0.0 0.00 0.00 0.03 74 1012.5
20260507072118 12 43 3.2 0.0 0.00 0.00 0.03 74 1012.3
20260507071624 11 106 3.2 0.0 0.00 0.00 0.03 74 1012.2
20260507071122 11 132 3.2 0.0 0.00 0.00 0.03 73 1012.1
20260507070625 11 200 3.2 0.0 0.00 0.00 0.03 73 1012.1
20260507070129 11 176 1.6 0.0 0.00 0.00 0.03 73 1012.0
20260507065611 11 133 1.6 0.0 0.00 0.00 0.03 72 1011.9
20260507064621 11 188 0.0 0.0 0.00 0.00 0.03 70 1011.5
20260507064124 11 155 1.6 0.0 0.00 0.00 0.03 72 1011.5
20260507063627 11 161 4.8 0.0 0.00 0.00 0.03 70 1011.4
20260507063111 11 317 6.4 0.0 0.00 0.00 0.03 70 1011.2
20260507062120 10 324 4.8 0.0 0.00 0.00 0.03 71 1011.1
20260507061131 10 250 6.4 0.0 0.00 0.00 0.03 68 1011.1
20260507060617 10 254 4.8 0.0 0.00 0.00 0.03 70 1011.0
20260507060121 10 292 4.8 0.0 0.00 0.00 0.03 70 1010.8
20260507055622 11 321 3.2 0.0 0.00 0.00 0.03 70 1010.9
20260507055124 11 28 3.2 0.0 0.00 0.00 0.03 63 1010.8
20260507054626 11 36 3.2 0.0 0.00 0.00 0.03 63 1010.8
20260507054126 11 5 3.2 0.0 0.00 0.00 0.03 65 1010.8
20260507053630 11 21 4.8 0.0 0.00 0.00 0.03 66 1010.8
20260507053112 11 34 6.4 0.0 0.00 0.00 0.03 67 1010.8
20260507052617 11 11 6.4 0.0 0.00 0.00 0.03 71 1011.0
20260507052119 11 325 4.8 0.0 0.00 0.00 0.03 69 1011.1
20260507051126 11 319 1.6 0.0 0.00 0.00 0.00 64 1011.2
20260507050629 11 215 0.0 0.0 0.00 0.00 0.00 66 1011.3
20260507050111 12 161 0.0 0.0 0.00 0.00 0.00 65 1011.2
20260507045623 12 161 1.6 0.0 0.00 0.00 0.00 65 1011.1
20260507045130 12 256 3.2 0.0 0.00 0.00 0.00 62 1011.0
20260507044616 12 317 3.2 0.0 0.00 0.00 0.00 59 1011.0
20260507043123 12 23 1.6 0.0 0.00 0.00 0.00 62 1011.0
20260507042128 12 325 1.6 0.0 0.00 0.00 0.00 63 1010.7
20260507041611 12 336 0.0 0.0 0.00 0.00 0.00 64 1010.7
20260507041114 12 281 1.6 0.0 0.00 0.00 0.00 62 1010.7
20260507040617 12 295 4.8 0.0 0.00 0.00 0.00 61 1010.6
20260507035610 12 311 8.0 0.0 0.00 0.00 0.00 61 1010.7
20260507035114 12 329 8.0 0.0 0.00 0.00 0.00 62 1010.7
20260507034619 12 331 8.0 0.0 0.00 0.00 0.00 61 1010.7
20260507034127 12 340 6.4 0.0 0.00 0.00 0.00 61 1010.8
20260507033629 11 309 4.8 0.0 0.00 0.00 0.00 60 1010.8
20260507033132 11 313 6.4 0.0 0.00 0.00 0.00 59 1010.8
20260507032610 11 301 6.4 0.0 0.00 0.00 0.00 59 1010.8
20260507032112 11 315 6.4 0.0 0.00 0.00 0.00 59 1010.8
20260507031616 11 327 6.4 0.0 0.00 0.00 0.00 59 1010.8
20260507031119 11 323 6.4 0.0 0.00 0.00 0.00 59 1010.8
20260507030623 11 323 4.8 0.0 0.00 0.00 0.00 59 1010.8
20260507030124 11 327 4.8 0.0 0.00 0.00 0.00 59 1010.8
20260507025612 11 328 6.4 0.0 0.00 0.00 0.00 59 1010.8
20260507025116 11 306 4.8 0.0 0.00 0.00 0.00 60 1010.8
20260507024619 11 319 4.8 0.0 0.00 0.00 0.00 60 1010.8
20260507024122 11 328 4.8 0.0 0.00 0.00 0.00 60 1010.7
20260507023129 11 336 3.2 0.0 0.00 0.00 0.00 59 1010.7
20260507022617 11 313 3.2 0.0 0.00 0.00 0.00 59 1010.8
20260507022121 11 311 4.8 0.0 0.00 0.00 0.00 58 1010.7
20260507021624 11 336 4.8 0.0 0.00 0.00 0.00 58 1010.8
20260507020629 11 319 3.2 0.0 0.00 0.00 0.00 57 1010.8
20260507020111 12 304 3.2 0.0 0.00 0.00 0.00 57 1010.8
20260507014624 12 329 6.4 0.0 0.00 0.00 0.00 56 1010.8
20260507014128 12 335 6.4 0.0 0.00 0.00 0.00 56 1010.9
20260507013117 12 334 4.8 0.0 0.00 0.00 0.00 55 1011.0
20260507012620 12 315 6.4 0.0 0.00 0.00 0.00 56 1011.0
20260507012124 11 337 6.4 0.0 0.00 0.00 0.00 56 1011.0
20260507011627 12 329 4.8 0.0 0.00 0.00 0.00 56 1011.1
20260507011133 12 331 4.8 0.0 0.00 0.00 0.00 56 1011.1
20260507010617 12 341 6.4 0.0 0.00 0.00 0.00 55 1011.2
20260507010122 11 314 6.4 0.0 0.00 0.00 0.00 56 1011.2
20260507005621 11 325 4.8 0.0 0.00 0.00 0.00 57 1011.2
20260507005124 11 333 4.8 0.0 0.00 0.00 0.00 57 1011.2
20260507004611 11 331 6.4 0.0 0.00 0.00 0.00 57 1011.2
20260507004114 11 332 6.4 0.0 0.00 0.00 0.00 57 1011.3
20260507003617 11 321 6.4 0.0 0.00 0.00 0.00 57 1011.3
20260507003120 11 319 4.8 0.0 0.00 0.00 0.00 58 1011.3
20260507002621 11 311 4.8 0.0 0.00 0.00 0.00 58 1011.3
20260507002124 11 327 6.4 0.0 0.00 0.00 0.00 57 1011.4
20260507001110 11 324 4.8 0.0 0.00 0.00 0.00 57 1011.4
20260507000613 11 317 3.2 0.0 0.00 0.00 0.00 58 1011.5
20260507000116 11 300 3.2 0.0 0.00 0.00 0.00 58 1011.5
20260506235625 11 317 4.8 0.0 0.00 0.00 0.00 57 1011.5
20260506235129 11 326 4.8 0.0 0.00 0.00 0.00 57 1011.5
20260506234620 11 321 3.2 0.0 0.00 0.00 0.00 56 1011.5
20260506234118 12 346 3.2 0.0 0.00 0.00 0.00 56 1011.5
20260506233620 12 334 3.2 0.0 0.00 0.00 0.00 55 1011.5
20260506232627 12 331 4.8 0.0 0.00 0.00 0.00 56 1011.6
20260506232128 12 331 4.8 0.0 0.00 0.00 0.00 55 1011.6
20260506231629 12 323 4.8 0.0 0.00 0.00 0.00 56 1011.6
20260506231111 12 322 4.8 0.0 0.00 0.00 0.00 56 1011.6
20260506230614 12 327 3.2 0.0 0.00 0.00 0.00 56 1011.6
20260506230116 12 322 3.2 0.0 0.00 0.00 0.00 56 1011.7
20260506225125 12 313 4.8 0.0 0.00 0.00 0.00 57 1011.6
20260506224611 12 324 4.8 0.0 0.00 0.00 0.00 55 1011.6
20260506224120 12 319 6.4 0.0 0.00 0.00 0.00 55 1011.5
20260506223132 12 328 6.4 0.0 0.00 0.00 0.00 55 1011.6
20260506222611 12 323 4.8 0.0 0.00 0.00 0.00 56 1011.6
20260506222114 12 322 4.8 0.0 0.00 0.00 0.00 55 1011.6
20260506221617 12 319 4.8 0.0 0.00 0.00 0.00 56 1011.6
20260506221119 12 290 4.8 0.0 0.00 0.00 0.00 55 1011.6
20260506220623 12 355 4.8 0.0 0.00 0.00 0.00 55 1011.6
20260506220123 12 345 4.8 0.0 0.00 0.00 0.00 54 1011.6
20260506215629 12 324 4.8 0.0 0.00 0.00 0.00 53 1011.6
20260506215129 12 355 4.8 0.0 0.00 0.00 0.00 52 1011.6
20260506214617 12 337 4.8 0.0 0.00 0.00 0.00 52 1011.6
20260506214119 12 312 4.8 0.0 0.00 0.00 0.00 52 1011.7
20260506213622 12 315 4.8 0.0 0.00 0.00 0.00 52 1011.6
20260506213124 12 342 4.8 0.0 0.00 0.00 0.00 52 1011.7
20260506212633 13 336 6.4 0.0 0.00 0.00 0.00 53 1011.7
20260506212119 13 334 6.4 0.0 0.00 0.00 0.00 52 1011.7
20260506211620 13 336 8.0 0.0 0.00 0.00 0.00 52 1011.7
20260506211117 13 321 6.4 0.0 0.00 0.00 0.00 52 1011.7
20260506210621 13 331 6.4 0.0 0.00 0.00 0.00 53 1011.7
20260506205628 13 349 4.8 0.0 0.00 0.00 0.00 53 1011.7
20260506205112 13 319 4.8 0.0 0.00 0.00 0.00 53 1011.7
20260506204620 13 349 4.8 0.0 0.00 0.00 0.00 53 1011.6
20260506204123 13 344 4.8 0.0 0.00 0.00 0.00 54 1011.6
20260506203627 13 348 6.4 0.0 0.00 0.00 0.00 53 1011.6
20260506203128 13 5 6.4 0.0 0.00 0.00 0.00 53 1011.5
20260506202611 13 333 6.4 0.0 0.00 0.00 0.00 53 1011.6
20260506202111 13 342 6.4 0.0 0.00 0.00 0.00 53 1011.5
20260506201615 13 322 6.4 0.0 0.00 0.00 0.00 54 1011.5
20260506201124 13 326 6.4 0.0 0.00 0.00 0.00 54 1011.5
20260506195618 13 336 3.2 0.0 0.00 0.00 0.00 54 1011.5
20260506195122 13 323 3.2 0.0 0.00 0.00 0.00 53 1011.5
20260506194114 13 304 3.2 0.0 0.00 0.00 0.00 53 1011.5
20260506193619 13 320 3.2 0.0 0.00 0.00 0.00 52 1011.5
20260506193121 13 327 4.8 0.0 0.00 0.00 0.00 52 1011.4
20260506192626 13 333 4.8 0.0 0.00 0.00 0.00 52 1011.4
20260506192126 14 298 6.4 0.0 0.00 0.00 0.00 51 1011.4
20260506191628 14 324 8.0 0.0 0.00 0.00 0.00 50 1011.3
20260506191112 14 321 8.0 0.0 0.00 0.00 0.00 51 1011.4
20260506190616 14 299 6.4 0.0 0.00 0.00 0.00 51 1011.4
20260506190119 15 334 6.4 0.0 0.00 0.00 0.00 50 1011.4
20260506185627 15 327 6.4 0.0 0.00 0.00 0.00 49 1011.4
20260506184621 15 321 4.8 0.0 0.00 0.00 0.00 48 1011.4
20260506183626 16 321 3.2 0.0 0.00 0.00 0.00 44 1011.4
20260506183127 17 326 1.6 0.0 0.00 0.00 0.00 44 1011.4
20260506182611 17 18 1.6 0.0 0.00 0.00 0.00 41 1011.3
20260506182114 17 27 1.6 0.0 0.00 0.00 0.00 39 1011.3
20260506181615 18 80 1.6 0.0 0.00 0.00 0.00 38 1011.3
20260506181115 18 57 1.6 0.0 0.00 0.00 0.00 35 1011.3
20260506180122 19 169 0.0 0.0 0.00 0.00 0.00 35 1011.4
20260506175127 20 69 1.6 0.0 0.00 0.00 0.00 33 1011.5
20260506174630 20 348 1.6 0.0 0.00 0.00 0.00 34 1011.5
20260506174120 20 187 1.6 0.0 0.00 0.00 0.00 33 1011.5
20260506173623 19 43 1.6 0.0 0.00 0.00 0.00 34 1011.6
20260506173128 19 355 1.6 0.0 0.00 0.00 0.00 34 1011.7
20260506172112 19 101 1.6 0.0 0.00 0.00 0.00 33 1011.6
20260506171615 19 134 3.2 0.0 0.00 0.00 0.00 33 1011.7
20260506171118 19 128 3.2 0.0 0.00 0.00 0.00 32 1011.8
20260506170621 19 134 4.8 0.0 0.00 0.00 0.00 33 1011.8
20260506165612 20 144 1.6 0.0 0.00 0.00 0.00 32 1011.7
20260506165116 20 138 1.6 0.0 0.00 0.00 0.00 32 1011.7
20260506164124 20 129 1.6 0.0 0.00 0.00 0.00 32 1011.8
20260506163611 20 136 3.2 0.0 0.00 0.00 0.00 31 1011.9
20260506162130 20 121 3.2 0.0 0.00 0.00 0.00 32 1011.8
20260506161633 20 115 3.2 0.0 0.00 0.00 0.00 32 1011.9
20260506161112 20 105 3.2 0.0 0.00 0.00 0.00 32 1011.9
20260506160121 20 182 1.6 0.0 0.00 0.00 0.00 31 1012.0
20260506155625 20 21 3.2 0.0 0.00 0.00 0.00 31 1012.0
20260506155126 20 28 3.2 0.0 0.00 0.00 0.00 30 1012.2
20260506154116 19 111 4.8 0.0 0.00 0.00 0.00 33 1012.1
20260506153618 19 136 3.2 0.0 0.00 0.00 0.00 32 1012.2
20260506153126 18 198 3.2 0.0 0.00 0.00 0.00 30 1012.1
20260506152629 18 138 3.2 0.0 0.00 0.00 0.00 31 1012.3
20260506151615 19 105 6.4 0.0 0.00 0.00 0.00 33 1012.4
20260506151123 18 144 6.4 0.0 0.00 0.00 0.00 34 1012.4
20260506150627 19 148 4.8 0.0 0.00 0.00 0.00 33 1012.4
20260506150132 19 113 4.8 0.0 0.00 0.00 0.00 35 1012.5
20260506144621 18 26 1.6 0.0 0.00 0.00 0.00 36 1012.7
20260506144122 17 329 4.8 0.0 0.00 0.00 0.00 39 1012.8
20260506143624 17 126 4.8 0.0 0.00 0.00 0.00 39 1013.0
20260506142628 18 183 8.0 0.0 0.00 0.00 0.00 37 1013.0
20260506142112 18 100 9.7 0.0 0.00 0.00 0.00 38 1013.0
20260506141614 18 130 8.0 0.0 0.00 0.00 0.00 37 1013.1
20260506141115 18 208 8.0 0.0 0.00 0.00 0.00 42 1013.1
20260506140620 18 152 8.0 0.0 0.00 0.00 0.00 39 1013.2
20260506140123 18 163 4.8 0.0 0.00 0.00 0.00 40 1013.3
20260506135119 18 51 4.8 0.0 0.00 0.00 0.00 44 1013.3
20260506134622 17 213 8.0 0.0 0.00 0.00 0.00 40 1013.5
20260506134122 18 163 6.4 0.0 0.00 0.00 0.00 41 1013.6
20260506133126 18 110 6.4 0.0 0.00 0.00 0.00 40 1013.6
20260506132115 18 138 6.4 0.0 0.00 0.00 0.00 43 1013.7
20260506131619 17 155 6.4 0.0 0.00 0.00 0.00 45 1013.7
20260506131122 17 115 4.8 0.0 0.00 0.00 0.00 43 1013.8
20260506130628 18 136 4.8 0.0 0.00 0.00 0.00 40 1013.9
20260506130129 18 30 4.8 0.0 0.00 0.00 0.00 39 1013.9
20260506125117 18 263 3.2 0.0 0.00 0.00 0.00 43 1013.9
20260506124620 17 182 4.8 0.0 0.00 0.00 0.00 43 1014.1
20260506124128 17 28 4.8 0.0 0.00 0.00 0.00 42 1014.2
20260506123119 18 323 4.8 0.0 0.00 0.00 0.00 40 1014.2
20260506122124 18 200 4.8 0.0 0.00 0.00 0.00 41 1014.4
20260506121627 18 145 6.4 0.0 0.00 0.00 0.00 40 1014.4
20260506121128 18 141 6.4 0.0 0.00 0.00 0.00 40 1014.4
20260506120611 18 141 4.8 0.0 0.00 0.00 0.00 41 1014.4
20260506120118 18 43 4.8 0.0 0.00 0.00 0.00 42 1014.6
20260506115620 17 139 6.4 0.0 0.00 0.00 0.00 44 1014.6
20260506114628 18 132 4.8 0.0 0.00 0.00 0.00 43 1014.7
20260506114127 17 87 3.2 0.0 0.00 0.00 0.00 44 1014.8
20260506113612 17 223 4.8 0.0 0.00 0.00 0.00 42 1014.9
20260506113114 17 184 4.8 0.0 0.00 0.00 0.00 44 1014.9
20260506112623 17 98 4.8 0.0 0.00 0.00 0.00 47 1015.0
20260506111116 17 77 4.8 0.0 0.00 0.00 0.00 47 1015.1
20260506110619 16 124 4.8 0.0 0.00 0.00 0.00 47 1015.1
20260506110122 16 118 6.4 0.0 0.00 0.00 0.00 50 1015.2
20260506105113 16 183 6.4 0.0 0.00 0.00 0.00 46 1015.1
20260506104122 16 42 4.8 0.0 0.00 0.00 0.00 49 1015.2
20260506103130 16 315 3.2 0.0 0.00 0.00 0.00 45 1015.2
20260506102613 16 57 6.4 0.0 0.00 0.00 0.00 47 1015.3
20260506102118 16 55 4.8 0.0 0.00 0.00 0.00 48 1015.3
20260506101619 16 108 4.8 0.0 0.00 0.00 0.00 48 1015.3
20260506101128 16 100 3.2 0.0 0.00 0.00 0.00 49 1015.3
20260506100634 15 92 3.2 0.0 0.00 0.00 0.00 51 1015.3
20260506100118 15 107 6.4 0.0 0.00 0.00 0.00 52 1015.4
20260506095616 15 118 4.8 0.0 0.00 0.00 0.00 53 1015.3
20260506095125 15 125 4.8 0.0 0.00 0.00 0.00 51 1015.2
20260506094628 15 118 6.4 0.0 0.00 0.00 0.00 53 1015.1
20260506094128 15 120 4.8 0.0 0.00 0.00 0.00 54 1015.1